STARLINK-4700, 53722

Orbit data source: Space-Track

STARLINK-4700, 53722 is a payload satellite owned by SpaceX/Seattle (US) in LEO that was launched on Mon, 05 Sep 2022 UTC via an FALCON 9 launch vehicle from the Air Force Eastern Test Range (AFETR). Payload-class satellites include a variety of spacecraft equipped with specific instruments for various scientific and technological missions. These include communications satellites like Starlink; space stations such as the ISS; scientific satellites like the Hubble; Earth observation satellites from companies like Planet Labs, Umbra, and HawkEye 360; GPS; miniature CubeSats for education and research; and military/defense satellites.

Loading next visibility...
Identifier
53722, 2022-107Y
Orbit
LEO
Country
Flag of USUS
Related business
Manufacturer
SpaceX/Seattle
Mission
Operational Commercial Communications
Bus & Motor
STARLINK, Unknown motor
Mass
305 kg wet, ~290 kg dry
Launch date (UTC)
2022-09-05 (4 years ago)
Launch vehicle
FALCON 9
Launch site
Air Force Eastern Test Range (AFETR)
Object type
Payload
Rocket body
Debris
Shape & HBR
Box + 1 Pan, 10.1 m
Radar Cross Section
13.562 m², Large (>1 m²)

Expand to show TLE details & history
Last TLE update: 2 days ago

TLE from 2 days ago
0 STARLINK-4700
1 53722U 22107Y   26171.22164681  .00000620  00000-0  57008-4 0  9990
2 53722  53.1613 153.6344 0001341  82.0649 278.0494 15.08845631209886
Epoch: 2026-06-20T05:19Z
TLE epoch observation values (Epoch: 2026-06-20T05:19:10.284Z)
Latitude
-0.00006°
Longitude
165.40212°
Altitude
540.488 km
Speed
7.593 km/s
True Right ascension
10h 14m 32s
True Declination
0° 00' 00"
Sunlit
Object was in daylight at epoch
Visualization orbit readout
Latitude
Unknown
Longitude
Unknown
Altitude
Unknown
Speed
Unknown
Apparent Right ascension
Unknown
Apparent Declination
Unknown
Sunlit
N/A
Visualization observer readout
Local Sidereal Time
21:28:18
Azimuth
Unknown
Elevation
Unknown
Doppler factor
Unknown
Orbital elements
Apogee altitude
540.908 km
Perigee altitude
539.052 km
Semi-major axis
6,918.117 km
Eccentricity
0.00013
Inclination
53.1613°
RAAN
153.6344°
Arg. of periapsis
82.0649°
True anomaly
278.03418°
Mean anomaly
278.0494°
Eccentric anomaly
278.04179°
Mean motion
3.77191 °/min
Orbital period
95.44 mins
BSTAR
0.000057008
Loading maneuver chart data...
Computing Atmospheric mass density...
Loading historical data...
Loading historical data...
Loading historical data...
Loading historical data...
Loading historical data...
Loading historical data...
Loading historical data...

Documentation

Showing up to 5 results
|